Location: Casco Volunteer Fire Department
(44.5576°N, 87.6146°W)
Time: 15:09:01
(UTC+00:00)

SAR-Lupe-4 - Visible Passes

Search period start: 11 April 2026 00:00
Search period end: 21 April 2026 00:00
Orbit: 480 x 483 km, 98.1° (Epoch: 10 January)

Date Brightness Start Highest point End Pass type
(mag) Time Alt. Az. Time Alt. Az. Time Alt. Az.
11 Apr 6.8 01:37:07 10° WSW 01:38:44 13° W 01:40:22 10° WNW visible
12 Apr 6.0 01:08:52 10° SSW 01:11:53 26° W 01:14:55 10° NW visible
15 Apr 6.5 01:22:31 10° SW 01:25:06 19° W 01:27:42 10° NW visible
18 Apr 6.6 01:36:16 10° SW 01:38:10 14° W 01:40:05 10° WNW visible
19 Apr 5.8 01:08:07 10° SSW 01:11:13 28° W 01:14:21 10° NW visible
